Вернуться в каталог

COSMOS 1375 DEB

АктивенLEO
NORAD 16203·DEBRIS·🇷🇺 Russia

Запущен Jun 6, 1982 с Plesetsk Cosmodrome

Loading…

Ближайшие Пролёты (ближайшие 24 часа)

TLE

СвежийSource: Space-Track

Эпоха: Sep 14, 2026, 07:49 UTC

1 16203U 82055E   26257.32571493 -.00000068  00000-0  12811-4 0  9990
2 16203  65.8364  29.2512 0075456 303.6588  77.4051 13.89203300243098

Отслеживайте COSMOS 1375 DEB в реальном времени с AllMySat

Download on the App Store